[[{"header":{"parameterUnit":"m.s-1","parameterCategory":1,"la1":30.2991,"la2":30.254,"lo1":-89.0895,"lo2":-89.0444,"dy":0.0017,"dx":0.0017,"nx":28,"ny":28,"refTime":"2023-08-08T03:00:00:Z","depth":0,"parameterNumber":2,"parameterNumberName":"U-component_of_WINDS"},"data":[0,0,0,0,0,0,0,0,0,0,0,0,0,0,0,0,0,0,0,0,0,0,0,0,0,0,0,0,0,0,0,0,0,0,0,0,0,0,0,0,0,0,0,0,0,0,0,0,0,0,0,0,0,0,0,0,0,0,3.5317,3.5317,0,3.5361,3.5361,3.5362,3.5365,3.5365,3.5364,3.5364,3.5409,3.541,3.5412,0,0,0,0,0,0,0,0,0,0,0,0,0,3.5238,3.5239,3.5317,3.5317,3.5318,3.5361,3.5361,3.5362,3.5365,3.5365,3.5364,3.5363,3.5408,3.541,3.5412,0,0,0,0,0,0,0,0,0,0,0,0,0,3.5276,3.524,3.5316,3.5324,3.5326,3.5361,3.5361,3.5362,3.5365,3.5365,3.5364,3.5363,3.5408,3.541,3.5412,3.5442,0,0,3.542,3.5421,0,0,0,0,0,0,0,0,3.5274,3.5279,3.5323,3.5324,3.5325,3.5357,3.535,3.5389,3.5365,3.535,3.5364,3.5363,3.5392,3.5396,3.5406,3.5444,3.5446,3.542,3.5422,3.5423,3.5424,0,0,0,0,0,0,0,3.5271,3.5277,3.5334,3.5323,3.5325,3.5327,3.5331,3.5357,3.5375,3.5351,3.5352,3.5357,3.5393,3.5403,3.5407,3.5447,3.542,3.5422,3.5424,3.5425,3.5517,3.5518,0,0,0,0,0,0,3.5267,3.5275,3.5333,3.5335,3.5297,3.5329,3.5334,3.5347,3.5374,3.5378,3.5358,3.5357,3.5399,3.5404,3.5408,3.5447,3.5423,3.5425,3.5427,3.5516,3.5517,3.5518,0,0,0,0,0,0,3.5265,3.5272,3.5331,3.5305,3.5313,3.5331,3.5346,3.5349,3.5359,3.5379,3.5382,3.5365,3.5399,3.5405,3.5435,3.5449,3.5426,3.5428,3.5515,3.5516,3.5517,3.5523,0,0,0,0,0,0,3.5263,3.5271,3.5282,3.5305,3.5314,3.5355,3.5347,3.535,3.5363,3.5363,3.5387,3.539,3.5399,3.5431,3.5437,3.5452,3.543,3.5513,3.5515,3.5517,3.5522,3.5525,3.5527,0,0,0,0,0,3.526,3.5281,3.5282,3.5289,3.5328,3.5356,3.5361,3.5371,3.5364,3.5376,3.539,3.5389,3.5446,3.5434,3.5441,3.5456,3.5512,3.5515,3.5517,3.5521,3.5524,3.5527,0,0,0,0,0,0,3.5257,3.5284,3.5286,3.5315,3.5333,3.5357,3.5371,3.5374,3.5394,3.5393,3.5404,3.541,3.544,3.5451,3.5437,3.5489,3.5479,3.5483,3.548,3.5483,3.5486,3.5482,3.5432,0,0,0,0,0,3.526,3.5281,3.5303,3.5327,3.5336,3.5352,3.5365,3.5371,3.5391,3.5398,3.5414,3.5433,3.5456,3.547,3.5492,3.5525,3.5531,3.5539,3.5542,3.5544,3.5546,3.5567,3.5572,3.5525,3.5525,3.5525,0,0,3.5266,3.5283,3.5295,3.5327,3.5342,3.5364,3.5359,3.5381,3.5398,3.5402,3.5431,3.5444,3.5467,3.5499,3.5514,3.5509,3.5561,3.5546,3.5548,3.5549,3.557,3.5574,3.5578,3.5526,3.5526,3.5526,0,0,3.5288,3.5302,3.5325,3.5341,3.5365,3.5376,3.5382,3.5406,3.5414,3.5444,3.5449,3.547,3.5507,3.5524,3.5538,3.5572,3.5573,3.5578,3.5592,3.5612,3.5616,3.5619,3.5632,3.5637,3.5581,3.5581,3.5581,0,3.5292,3.5325,3.5336,3.536,3.5375,3.5381,3.5405,3.542,3.5449,3.546,3.5455,3.5505,3.5521,3.5558,3.5567,3.5577,3.5585,3.5575,3.5614,3.5618,3.5621,3.5634,3.5638,3.5582,3.5582,3.5582,3.5582,0,3.533,3.5353,3.5368,3.5398,3.5415,3.5438,3.5454,3.547,3.5477,3.5489,3.5522,3.5541,3.5568,3.5578,3.5583,3.5617,3.5614,3.5612,3.5602,3.5626,3.5638,3.5643,3.5583,3.5582,3.5582,3.5582,0,0,3.5347,3.5386,3.5392,3.5407,3.5435,3.5454,3.5479,3.5506,3.5521,3.5542,3.5565,3.5599,3.5598,3.5614,3.5622,3.5639,3.5667,3.5635,3.5636,3.5641,3.5708,3.571,3.5715,3.5669,3.567,3.5671,3.5707,0,3.5373,3.5418,3.5431,3.5469,3.5492,3.55,3.5523,3.5544,3.5557,3.558,3.5595,3.5619,3.5615,3.5625,3.5644,3.566,3.5681,3.5658,3.5691,3.5692,3.5684,3.5721,3.5722,3.5754,3.5711,3.5712,3.5713,0,3.5408,3.5431,3.5472,3.5501,3.5511,3.5531,3.5559,3.558,3.5605,3.5614,3.5633,3.5641,3.567,3.566,3.5701,3.5685,3.57,3.5711,3.5712,3.5715,3.5703,3.5725,3.5765,3.577,3.572,3.572,3.5719,0,3.5418,3.546,3.5491,3.5503,3.5537,3.5551,3.5566,3.5591,3.5608,3.5633,3.5644,3.5672,3.5687,3.571,3.5726,3.5717,3.5766,3.5757,3.5775,3.5775,3.5784,3.5783,3.5826,3.5794,3.5794,3.5794,3.5794,0,3.5445,3.5469,3.5496,3.5514,3.5544,3.556,3.5589,3.5604,3.5627,3.565,3.5659,3.5681,3.5701,3.5726,3.5738,3.5772,3.5778,3.5787,3.579,3.5786,3.5785,3.5795,3.5793,3.5795,3.5795,3.5795,3.5794,0,3.546,3.5479,3.5513,3.5544,3.5552,3.5572,3.5599,3.5619,3.5634,3.5664,3.5671,3.5696,3.5726,3.5745,3.5782,3.5791,3.5828,3.583,3.582,3.5821,3.5838,3.5836,3.5889,3.5898,3.586,3.586,3.5861,0,3.5475,3.5495,3.5529,3.5545,3.5561,3.5587,3.5605,3.5623,3.5642,3.5674,3.569,3.5722,3.5747,3.5796,3.5817,3.5847,3.585,3.5867,3.5854,3.5851,3.5851,3.585,3.5852,3.5868,3.5869,3.5869,3.5869,0,3.5501,3.5511,3.5536,3.5566,3.5587,3.5611,3.5635,3.5649,3.5671,3.5692,3.5724,3.5744,3.5785,3.5816,3.5849,3.5865,3.5872,3.5874,3.5879,3.5875,3.5868,3.5873,3.5825,3.5872,3.5871,3.5871,3.5871,3.5871,3.5517,3.5536,3.5564,3.5593,3.5614,3.5637,3.5658,3.5677,3.5703,3.5738,3.5748,3.5781,3.581,3.5854,3.5873,3.59,3.5898,3.5906,3.5908,3.5909,3.591,3.5865,3.5906,3.5906,3.5906,3.5906,3.5906,0,3.5544,3.5563,3.559,3.5624,3.5648,3.5653,3.5682,3.5701,3.573,3.5757,3.5783,3.5821,3.5852,3.5878,3.5911,3.5928,3.5932,3.5936,3.5935,3.5939,3.591,3.5902,3.5933,3.5933,3.5933,3.5933,3.5933,3.5933,3.5561,3.5594,3.5607,3.5651,3.5671,3.5704,3.572,3.5742,3.5763,3.5805,3.5832,3.5849,3.5876,3.5912,3.5942,3.5949,3.5961,3.5964,3.5972,3.5944,3.5941,3.5938,3.593,3.5967,3.5967,3.5999,3.5999,3.5999]},{"header":{"parameterUnit":"m.s-1","parameterCategory":1,"la1":30.2991,"la2":30.254,"lo1":-89.0895,"lo2":-89.0444,"dy":0.0017,"dx":0.0017,"nx":28,"ny":28,"refTime":"2023-08-08T03:00:00:Z","depth":0,"parameterNumber":3,"parameterNumberName":"V-component_of_WINDS"},"data":[0,0,0,0,0,0,0,0,0,0,0,0,0,0,0,0,0,0,0,0,0,0,0,0,0,0,0,0,0,0,0,0,0,0,0,0,0,0,0,0,0,0,0,0,0,0,0,0,0,0,0,0,0,0,0,0,0,0,3.057,3.0572,0,3.0782,3.0785,3.0787,3.0849,3.0848,3.0847,3.0846,3.1061,3.1068,3.1074,0,0,0,0,0,0,0,0,0,0,0,0,0,3.0214,3.022,3.057,3.0573,3.0575,3.0782,3.0785,3.0788,3.085,3.0848,3.0847,3.0846,3.1059,3.1067,3.1075,0,0,0,0,0,0,0,0,0,0,0,0,0,3.0391,3.0222,3.0569,3.0631,3.0639,3.0781,3.0785,3.0788,3.085,3.0848,3.0847,3.0845,3.1056,3.1066,3.1076,3.1172,0,0,3.1107,3.1111,0,0,0,0,0,0,0,0,3.0381,3.0404,3.0619,3.0627,3.0636,3.0788,3.0738,3.0917,3.085,3.077,3.0846,3.0844,3.0971,3.0988,3.1032,3.1182,3.1191,3.1108,3.1114,3.1118,3.1121,0,0,0,0,0,0,0,3.0369,3.0395,3.0654,3.0622,3.0633,3.0647,3.067,3.0772,3.0877,3.0777,3.0782,3.0806,3.0975,3.1022,3.1037,3.1194,3.1108,3.1117,3.1123,3.1127,3.1429,3.143,0,0,0,0,0,0,3.0346,3.0385,3.0647,3.066,3.0502,3.0654,3.0681,3.0741,3.0876,3.0895,3.0807,3.0808,3.1005,3.1025,3.1045,3.1163,3.1118,3.1128,3.1134,3.1427,3.1429,3.1431,0,0,0,0,0,0,3.0339,3.0369,3.0639,3.0524,3.0559,3.0662,3.0729,3.0746,3.0792,3.0899,3.0918,3.0835,3.1005,3.1031,3.1139,3.1172,3.1132,3.1142,3.1424,3.1427,3.143,3.1402,0,0,0,0,0,0,3.0328,3.0366,3.0405,3.0524,3.0565,3.073,3.0731,3.0751,3.081,3.0813,3.0931,3.0949,3.1005,3.1123,3.1149,3.1185,3.115,3.1422,3.1426,3.1429,3.14,3.1403,3.1406,0,0,0,0,0,3.0315,3.0389,3.0407,3.0438,3.0616,3.0732,3.0756,3.082,3.0812,3.0851,3.0919,3.0945,3.1164,3.1134,3.1163,3.1203,3.142,3.1425,3.1429,3.1399,3.1403,3.1406,0,0,0,0,0,0,3.0271,3.0406,3.0427,3.0542,3.0625,3.0743,3.0794,3.0822,3.0909,3.0909,3.0984,3.101,3.1112,3.1168,3.1133,3.13,3.1293,3.1303,3.126,3.1264,3.1267,3.1251,3.1158,0,0,0,0,0,3.0274,3.0359,3.0472,3.0562,3.0603,3.0691,3.0744,3.0786,3.0875,3.091,3.0987,3.1071,3.1158,3.1214,3.1301,3.1408,3.1433,3.1449,3.1452,3.1454,3.1462,3.1519,3.1527,3.1446,3.1445,3.1445,0,0,3.0283,3.0367,3.0416,3.0555,3.0625,3.0708,3.072,3.0809,3.0871,3.0924,3.103,3.1088,3.1187,3.1294,3.1345,3.1344,3.149,3.146,3.146,3.1468,3.1524,3.1532,3.1539,3.1448,3.1448,3.1447,0,0,3.034,3.0414,3.0495,3.0564,3.0669,3.0726,3.0745,3.0858,3.0899,3.1007,3.1047,3.1121,3.1271,3.1338,3.1392,3.1471,3.1497,3.1497,3.1512,3.1567,3.1573,3.1579,3.1604,3.1613,3.1504,3.1504,3.1504,0,3.0337,3.0467,3.0534,3.062,3.0678,3.0729,3.0811,3.0874,3.1001,3.1039,3.1037,3.1223,3.1294,3.1415,3.1434,3.1477,3.1499,3.1484,3.1567,3.1573,3.158,3.1605,3.1615,3.1504,3.1504,3.1504,3.1504,0,3.0456,3.0544,3.0598,3.0718,3.0783,3.0867,3.0944,3.1001,3.1036,3.1093,3.12,3.1286,3.1389,3.1421,3.1457,3.1547,3.1542,3.1552,3.1546,3.1586,3.161,3.1621,3.1502,3.1503,3.1503,3.1503,0,0,3.0494,3.0648,3.0667,3.072,3.0838,3.0907,3.099,3.1091,3.1137,3.1222,3.1293,3.1417,3.1425,3.1486,3.153,3.1578,3.163,3.1582,3.1585,3.1586,3.1731,3.1722,3.1732,3.1648,3.165,3.1652,3.1722,0,3.0565,3.0718,3.0779,3.0903,3.0983,3.1031,3.1103,3.1182,3.1236,3.1311,3.137,3.1456,3.1462,3.1499,3.1549,3.1613,3.166,3.1609,3.1712,3.1715,3.1685,3.1746,3.1738,3.1799,3.1732,3.1734,3.1735,0,3.0669,3.0754,3.0885,3.0989,3.1025,3.109,3.1185,3.1257,3.1345,3.1381,3.1447,3.1487,3.1574,3.1561,3.168,3.1644,3.1689,3.1727,3.1731,3.1742,3.1727,3.1757,3.1821,3.183,3.1752,3.175,3.1749,0,3.068,3.0827,3.0924,3.0969,3.1094,3.1137,3.1191,3.1278,3.1333,3.1416,3.1452,3.1543,3.1593,3.1662,3.1724,3.171,3.1836,3.183,3.1866,3.1864,3.189,3.1888,3.1961,3.1921,3.1921,3.1921,3.1921,0,3.0752,3.083,3.093,3.099,3.1077,3.1145,3.1229,3.1286,3.1362,3.1432,3.1478,3.1542,3.1621,3.1694,3.1742,3.1831,3.1854,3.1884,3.1895,3.1879,3.1875,3.1909,3.1906,3.1923,3.1923,3.1922,3.1922,0,3.078,3.085,3.0959,3.1067,3.1096,3.1155,3.1247,3.1305,3.136,3.1447,3.1471,3.1558,3.1645,3.1714,3.1829,3.1861,3.1955,3.1969,3.1925,3.1931,3.1962,3.1958,3.206,3.2075,3.2026,3.2026,3.2026,0,3.0821,3.0882,3.0996,3.1046,3.1099,3.1179,3.1235,3.1303,3.136,3.1463,3.1507,3.1598,3.1675,3.1813,3.1884,3.1971,3.1986,3.2016,3.2,3.198,3.1984,3.198,3.1985,3.2018,3.2018,3.2018,3.2018,0,3.0885,3.0916,3.0996,3.1087,3.1153,3.1228,3.1304,3.1342,3.1423,3.1483,3.1574,3.1633,3.1749,3.1838,3.1931,3.1984,3.2014,3.2022,3.2035,3.2019,3.199,3.2004,3.1929,3.202,3.202,3.202,3.202,3.2019,3.092,3.0974,3.1062,3.1149,3.1213,3.1282,3.1341,3.1403,3.148,3.158,3.1615,3.1707,3.179,3.1918,3.1972,3.2043,3.2045,3.2063,3.2068,3.2071,3.2068,3.1979,3.206,3.206,3.206,3.206,3.2061,0,3.0984,3.1043,3.1122,3.1226,3.1293,3.1315,3.1399,3.1453,3.1534,3.1609,3.1683,3.1785,3.187,3.1947,3.2036,3.2078,3.2093,3.2098,3.2095,3.2106,3.2063,3.2042,3.2084,3.2084,3.2084,3.2084,3.2084,3.2084,3.1026,3.1119,3.116,3.1284,3.1342,3.1433,3.1479,3.1541,3.1601,3.1713,3.1784,3.1834,3.191,3.2003,3.2081,3.2101,3.2131,3.2132,3.2155,3.2113,3.211,3.2107,3.2088,3.2138,3.2138,3.2193,3.2193,3.2194]}]]